QPF
0.00 0.00 0.01 0.04 0.11 0.12 0.10 0.09 0.07 0.05 0.03 0.01 0.01 0.02 0.06 0.07 0.07 0.08 0.07 0.06 0.04 0.02 0.04 0.04 0.05 0.06 0.06 0.04 0.04 0.05 0.04 0.04 0.05 0.08 0.08 0.08 0.08 0.09 0.07 0.05 0.05 0.05 0.05 0.06 0.08 0.12 0.14 0.09 0.06
0.01 0.01 0.02 0.07 0.12 0.10 0.09 0.04 0.02 0.02 0.02 0.01 0.00 0.02 0.04 0.03 0.02 0.04 0.07 0.06 0.03 0.03 0.05 0.06 0.05 0.05 0.05 0.04 0.03 0.04 0.05 0.05 0.06 0.08 0.08 0.06 0.06 0.07 0.08 0.06 0.05 0.03 0.03 0.04 0.06 0.14 0.16 0.11 0.08
0.01 0.01 0.03 0.07 0.08 0.09 0.09 0.04 0.01 0.00 0.00 0.01 0.01 0.02 0.04 0.03 0.02 0.04 0.06 0.04 0.03 0.04 0.05 0.04 0.04 0.03 0.04 0.04 0.03 0.04 0.06 0.05 0.05 0.07 0.08 0.08 0.07 0.05 0.05 0.05 0.04 0.04 0.04 0.05 0.09 0.18 0.12 0.08 0.07
0.01 0.01 0.03 0.06 0.06 0.05 0.06 0.03 0.03 0.02 0.01 0.01 0.01 0.01 0.01 0.01 0.02 0.03 0.04 0.05 0.05 0.05 0.04 0.02 0.02 0.01 0.02 0.03 0.04 0.04 0.06 0.08 0.06 0.06 0.07 0.07 0.05 0.04 0.04 0.05 0.05 0.05 0.05 0.07 0.08 0.10 0.08 0.06 0.06
0.01 0.02 0.05 0.06 0.07 0.04 0.01 0.02 0.03 0.03 0.02 0.01 0.01 0.03 0.03 0.02 0.01 0.02 0.04 0.05 0.05 0.04 0.02 0.01 0.01 0.00 0.01 0.02 0.03 0.03 0.06 0.08 0.06 0.05 0.06 0.05 0.04 0.04 0.04 0.04 0.04 0.05 0.05 0.06 0.07 0.07 0.05 0.04 0.04
0.02 0.03 0.06 0.07 0.07 0.04 0.01 0.00 0.01 0.03 0.04 0.01 0.01 0.03 0.04 0.04 0.03 0.02 0.04 0.08 0.05 0.04 0.03 0.01 0.01 0.00 0.01 0.01 0.02 0.05 0.07 0.08 0.07 0.05 0.06 0.06 0.05 0.04 0.04 0.04 0.03 0.04 0.05 0.06 0.06 0.06 0.06 0.05 0.04
0.05 0.05 0.06 0.07 0.07 0.04 0.01 0.00 0.01 0.03 0.04 0.01 0.01 0.03 0.04 0.04 0.04 0.04 0.05 0.05 0.04 0.03 0.04 0.03 0.02 0.01 0.02 0.01 0.02 0.04 0.06 0.06 0.05 0.05 0.05 0.06 0.06 0.06 0.05 0.04 0.03 0.04 0.04 0.06 0.06 0.07 0.05 0.04 0.04
0.03 0.05 0.05 0.07 0.07 0.04 0.01 0.00 0.00 0.01 0.02 0.00 0.00 0.04 0.05 0.04 0.06 0.05 0.03 0.03 0.03 0.03 0.03 0.02 0.01 0.01 0.02 0.02 0.02 0.04 0.05 0.04 0.04 0.05 0.06 0.06 0.06 0.05 0.05 0.03 0.04 0.05 0.05 0.06 0.06 0.07 0.05 0.04 0.03
0.01 0.05 0.06 0.05 0.04 0.03 0.02 0.01 0.01 0.00 0.00 0.00 0.00 0.01 0.03 0.04 0.07 0.05 0.03 0.03 0.05 0.04 0.03 0.01 0.00 0.01 0.02 0.02 0.02 0.04 0.05 0.04 0.05 0.05 0.06 0.07 0.07 0.04 0.03 0.03 0.04 0.04 0.05 0.06 0.08 0.07 0.06 0.05 0.04
0.03 0.05 0.05 0.02 0.01 0.02 0.01 0.01 0.01 0.01 0.02 0.01 0.01 0.01 0.04 0.06 0.07 0.06 0.04 0.04 0.06 0.04 0.02 0.02 0.01 0.01 0.01 0.02 0.02 0.03 0.04 0.05 0.04 0.04 0.04 0.03 0.03 0.02 0.03 0.04 0.05 0.04 0.04 0.06 0.09 0.07 0.06 0.05 0.04
0.02 0.03 0.02 0.00 0.00 0.01 0.01 0.01 0.00 0.03 0.04 0.02 0.02 0.02 0.03 0.05 0.05 0.05 0.06 0.06 0.04 0.03 0.03 0.03 0.02 0.02 0.02 0.02 0.02 0.03 0.03 0.03 0.03 0.03 0.02 0.02 0.01 0.01 0.02 0.02 0.04 0.04 0.06 0.08 0.07 0.05 0.05 0.05 0.04
0.01 0.01 0.00 0.00 0.00 0.01 0.00 0.01 0.00 0.01 0.02 0.01 0.02 0.03 0.03 0.04 0.04 0.03 0.04 0.04 0.02 0.02 0.03 0.03 0.03 0.03 0.02 0.01 0.02 0.02 0.03 0.02 0.02 0.02 0.01 0.01 0.01 0.01 0.00 0.01 0.02 0.03 0.05 0.07 0.05 0.04 0.04 0.04 0.04
0.01 0.01 0.00 0.00 0.00 0.01 0.01 0.01 0.01 0.00 0.01 0.01 0.01 0.03 0.04 0.03 0.02 0.03 0.03 0.02 0.01 0.02 0.03 0.04 0.04 0.03 0.02 0.02 0.02 0.01 0.03 0.02 0.01 0.01 0.00 0.00 0.01 0.01 0.01 0.01 0.01 0.01 0.02 0.04 0.04 0.04 0.04 0.05 0.05
0.01 0.01 0.01 0.01 0.00 0.01 0.01 0.01 0.01 0.00 0.01 0.01 0.02 0.03 0.02 0.02 0.01 0.02 0.01 0.01 0.01 0.01 0.03 0.04 0.03 0.02 0.03 0.02 0.01 0.01 0.01 0.01 0.00 0.00 0.00 0.00 0.00 0.01 0.01 0.01 0.02 0.02 0.02 0.03 0.04 0.03 0.03 0.05 0.05
0.01 0.01 0.02 0.01 0.01 0.01 0.01 0.01 0.02 0.01 0.01 0.01 0.02 0.03 0.01 0.01 0.01 0.01 0.01 0.01 0.01 0.01 0.02 0.03 0.03 0.02 0.03 0.03 0.02 0.01 0.00 0.00 0.00 0.00 0.00 0.00 0.00 0.01 0.01 0.01 0.02 0.01 0.01 0.01 0.03 0.03 0.02 0.03 0.03
0.01 0.02 0.04 0.01 0.00 0.00 0.01 0.02 0.02 0.02 0.03 0.02 0.02 0.03 0.02 0.01 0.01 0.01 0.02 0.02 0.01 0.01 0.02 0.02 0.04 0.03 0.03 0.02 0.02 0.01 0.01 0.00 0.00 0.00 0.01 0.01 0.00 0.00 0.01 0.02 0.01 0.01 0.01 0.01 0.02 0.02 0.02 0.03 0.03
0.03 0.05 0.05 0.02 0.00 0.00 0.02 0.03 0.02 0.01 0.04 0.04 0.02 0.02 0.02 0.01 0.00 0.00 0.01 0.03 0.02 0.01 0.01 0.01 0.02 0.01 0.01 0.01 0.01 0.02 0.02 0.01 0.01 0.01 0.01 0.01 0.00 0.01 0.01 0.03 0.02 0.01 0.01 0.02 0.02 0.02 0.03 0.04 0.03
0.04 0.04 0.02 0.01 0.01 0.01 0.02 0.02 0.01 0.01 0.03 0.05 0.02 0.02 0.01 0.00 0.00 0.00 0.01 0.02 0.03 0.03 0.02 0.01 0.01 0.01 0.00 0.01 0.01 0.02 0.02 0.02 0.01 0.00 0.01 0.01 0.01 0.00 0.00 0.01 0.01 0.02 0.02 0.02 0.03 0.03 0.04 0.04 0.03
0.02 0.02 0.02 0.01 0.01 0.01 0.02 0.02 0.02 0.01 0.03 0.04 0.02 0.02 0.01 0.00 0.00 0.00 0.00 0.01 0.03 0.03 0.03 0.02 0.01 0.01 0.00 0.00 0.00 0.01 0.01 0.02 0.01 0.01 0.00 0.00 0.00 0.00 0.00 0.01 0.01 0.02 0.03 0.03 0.02 0.03 0.04 0.04 0.03
0.02 0.02 0.02 0.02 0.01 0.01 0.02 0.01 0.01 0.01 0.02 0.03 0.02 0.02 0.01 0.00 0.00 0.00 0.00 0.01 0.01 0.02 0.04 0.03 0.02 0.01 0.01 0.00 0.00 0.00 0.01 0.02 0.02 0.01 0.00 0.00 0.00 0.00 0.00 0.00 0.01 0.01 0.02 0.02 0.03 0.04 0.05 0.04 0.03
0.02 0.02 0.02 0.02 0.02 0.02 0.02 0.02 0.01 0.01 0.01 0.01 0.01 0.01 0.01 0.00 0.00 0.00 0.01 0.01 0.01 0.01 0.01 0.02 0.02 0.02 0.01 0.01 0.00 0.00 0.00 0.01 0.02 0.02 0.01 0.01 0.00 0.01 0.01 0.01 0.00 0.01 0.02 0.02 0.03 0.02 0.05 0.05 0.03
0.01 0.01 0.01 0.02 0.03 0.02 0.01 0.03 0.02 0.02 0.02 0.01 0.01 0.01 0.01 0.01 0.00 0.01 0.01 0.01 0.01 0.00 0.01 0.01 0.01 0.01 0.01 0.01 0.01 0.00 0.00 0.01 0.01 0.02 0.02 0.01 0.00 0.00 0.01 0.00 0.01 0.01 0.01 0.01 0.01 0.01 0.03 0.05 0.04
0.01 0.01 0.02 0.02 0.03 0.02 0.01 0.01 0.01 0.01 0.02 0.01 0.01 0.01 0.01 0.01 0.01 0.01 0.01 0.01 0.01 0.01 0.01 0.01 0.00 0.00 0.01 0.00 0.00 0.00 0.00 0.00 0.00 0.01 0.01 0.01 0.00 0.00 0.00 0.00 0.01 0.01 0.01 0.01 0.01 0.01 0.03 0.04 0.05
0.01 0.01 0.01 0.02 0.02 0.02 0.01 0.01 0.01 0.01 0.01 0.00 0.00 0.00 0.00 0.00 0.01 0.01 0.01 0.01 0.01 0.01 0.02 0.01 0.00 0.00 0.00 0.00 0.00 0.00 0.00 0.00 0.01 0.01 0.02 0.01 0.00 0.01 0.00 0.01 0.01 0.01 0.01 0.01 0.02 0.01 0.01 0.02 0.03
0.02 0.04 0.04 0.03 0.03 0.02 0.00 0.00 0.00 0.00 0.00 0.00 0.00 0.00 0.00 0.00 0.00 0.00 0.00 0.00 0.00 0.01 0.01 0.02 0.01 0.01 0.00 0.00 0.00 0.00 0.00 0.00 0.00 0.01 0.01 0.01 0.00 0.00 0.00 0.00 0.01 0.01 0.01 0.01 0.01 0.01 0.01 0.01 0.02
0.03 0.04 0.04 0.04 0.04 0.02 0.00 0.00 0.00 0.00 0.00 0.00 0.00 0.00 0.00 0.00 0.00 0.00 0.00 0.00 0.00 0.00 0.01 0.01 0.00 0.01 0.00 0.00 0.00 0.00 0.01 0.00 0.00 0.00 0.00 0.00 0.00 0.00 0.00 0.00 0.01 0.01 0.01 0.01 0.01 0.01 0.01 0.00 0.01
0.03 0.02 0.01 0.02 0.01 0.01 0.00 0.00 0.00 0.00 0.00 0.00 0.00 0.00 0.00 0.00 0.00 0.00 0.00 0.00 0.00 0.00 0.01 0.01 0.00 0.01 0.00 0.00 0.00 0.01 0.00 0.01 0.00 0.00 0.00 0.00 0.00 0.00 0.00 0.00 0.01 0.01 0.00 0.00 0.01 0.01 0.01 0.00 0.00
0.01 0.01 0.02 0.02 0.02 0.02 0.01 0.01 0.01 0.01 0.00 0.00 0.00 0.00 0.00 0.00 0.00 0.00 0.00 0.00 0.00 0.00 0.01 0.00 0.00 0.01 0.01 0.01 0.01 0.00 0.00 0.01 0.01 0.01 0.01 0.01 0.01 0.01 0.00 0.00 0.01 0.02 0.01 0.00 0.01 0.02 0.02 0.01 0.01
0.01 0.01 0.01 0.02 0.02 0.02 0.02 0.03 0.01 0.01 0.00 0.00 0.00 0.00 0.00 0.00 0.00 0.00 0.00 0.00 0.00 0.01 0.01 0.00 0.00 0.01 0.01 0.02 0.01 0.00 0.00 0.00 0.01 0.01 0.01 0.02 0.02 0.02 0.01 0.00 0.01 0.01 0.01 0.01 0.01 0.02 0.02 0.02 0.01
0.01 0.01 0.01 0.01 0.01 0.01 0.02 0.02 0.01 0.00 0.00 0.00 0.00 0.00 0.00 0.00 0.00 0.00 0.00 0.00 0.00 0.00 0.00 0.00 0.00 0.00 0.00 0.01 0.01 0.00 0.00 0.00 0.00 0.00 0.01 0.01 0.01 0.01 0.01 0.01 0.01 0.01 0.00 0.01 0.00 0.01 0.01 0.01 0.01
MSLP
1007.01 1007.76 1008.73 1009.79 1010.78 1011.56 1012.03 1012.16 1011.99 1011.65 1011.29 1011.05 1011.04 1011.28 1011.76 1012.37 1012.99 1013.48 1013.75 1013.78 1013.58 1013.24 1012.86 1012.53 1012.32 1012.25 1012.31 1012.42 1012.53 1012.59 1012.58 1012.51 1012.41 1012.35 1012.36 1012.45 1012.63 1012.87 1013.11 1013.32 1013.46 1013.54 1013.56 1013.56 1013.57 1013.61 1013.69 1013.79 1013.89
1007.24 1008.12 1009.18 1010.26 1011.22 1011.91 1012.27 1012.28 1012.02 1011.62 1011.24 1011.01 1011.03 1011.31 1011.79 1012.38 1012.94 1013.36 1013.56 1013.53 1013.31 1013.00 1012.69 1012.47 1012.38 1012.44 1012.58 1012.76 1012.89 1012.95 1012.91 1012.79 1012.66 1012.56 1012.55 1012.64 1012.82 1013.06 1013.30 1013.50 1013.64 1013.71 1013.73 1013.74 1013.76 1013.80 1013.89 1013.99 1014.09
1007.56 1008.54 1009.64 1010.71 1011.59 1012.16 1012.39 1012.28 1011.94 1011.50 1011.13 1010.94 1011.01 1011.33 1011.83 1012.39 1012.89 1013.22 1013.34 1013.24 1013.00 1012.71 1012.46 1012.34 1012.38 1012.55 1012.80 1013.05 1013.22 1013.28 1013.23 1013.10 1012.94 1012.82 1012.79 1012.86 1013.03 1013.25 1013.48 1013.67 1013.79 1013.86 1013.89 1013.91 1013.95 1014.02 1014.12 1014.24 1014.35
1007.97 1009.02 1010.13 1011.13 1011.90 1012.34 1012.42 1012.20 1011.80 1011.35 1011.01 1010.89 1011.03 1011.40 1011.91 1012.45 1012.89 1013.13 1013.16 1013.00 1012.72 1012.44 1012.25 1012.22 1012.36 1012.63 1012.97 1013.28 1013.49 1013.57 1013.53 1013.39 1013.22 1013.10 1013.06 1013.13 1013.29 1013.49 1013.70 1013.87 1013.99 1014.05 1014.09 1014.13 1014.19 1014.29 1014.43 1014.57 1014.69
1008.48 1009.56 1010.63 1011.53 1012.16 1012.45 1012.40 1012.09 1011.64 1011.22 1010.95 1010.91 1011.14 1011.57 1012.10 1012.61 1012.99 1013.15 1013.10 1012.87 1012.56 1012.28 1012.13 1012.15 1012.36 1012.71 1013.10 1013.45 1013.70 1013.80 1013.76 1013.64 1013.49 1013.38 1013.36 1013.44 1013.60 1013.79 1013.99 1014.15 1014.25 1014.31 1014.36 1014.41 1014.51 1014.64 1014.80 1014.96 1015.10
1009.06 1010.12 1011.11 1011.90 1012.38 1012.52 1012.36 1011.98 1011.53 1011.15 1010.97 1011.04 1011.35 1011.84 1012.40 1012.90 1013.22 1013.31 1013.18 1012.90 1012.56 1012.28 1012.14 1012.19 1012.44 1012.81 1013.22 1013.58 1013.83 1013.94 1013.91 1013.81 1013.70 1013.63 1013.65 1013.76 1013.94 1014.15 1014.34 1014.49 1014.59 1014.65 1014.70 1014.77 1014.88 1015.03 1015.21 1015.40 1015.55
1009.66 1010.67 1011.56 1012.21 1012.54 1012.56 1012.31 1011.91 1011.48 1011.18 1011.10 1011.28 1011.68 1012.23 1012.80 1013.28 1013.56 1013.59 1013.41 1013.08 1012.72 1012.44 1012.30 1012.36 1012.60 1012.96 1013.34 1013.67 1013.90 1013.99 1013.97 1013.90 1013.83 1013.82 1013.90 1014.06 1014.28 1014.52 1014.72 1014.88 1014.97 1015.03 1015.07 1015.14 1015.26 1015.42 1015.62 1015.81 1015.97
1010.25 1011.17 1011.93 1012.44 1012.64 1012.56 1012.27 1011.87 1011.51 1011.30 1011.32 1011.60 1012.08 1012.67 1013.25 1013.71 1013.94 1013.94 1013.72 1013.38 1013.01 1012.72 1012.59 1012.64 1012.85 1013.15 1013.48 1013.75 1013.92 1013.98 1013.96 1013.91 1013.89 1013.94 1014.09 1014.32 1014.59 1014.86 1015.09 1015.25 1015.35 1015.40 1015.44 1015.51 1015.62 1015.78 1015.98 1016.18 1016.35
1010.76 1011.56 1012.19 1012.57 1012.68 1012.53 1012.23 1011.87 1011.59 1011.48 1011.61 1011.97 1012.51 1013.12 1013.69 1014.11 1014.31 1014.28 1014.05 1013.71 1013.36 1013.08 1012.95 1012.98 1013.14 1013.38 1013.62 1013.81 1013.91 1013.93 1013.89 1013.86 1013.88 1014.00 1014.21 1014.51 1014.84 1015.15 1015.41 1015.59 1015.68 1015.73 1015.77 1015.83 1015.93 1016.09 1016.28 1016.49 1016.68
1011.16 1011.85 1012.35 1012.62 1012.64 1012.48 1012.20 1011.91 1011.72 1011.71 1011.93 1012.35 1012.91 1013.51 1014.05 1014.43 1014.59 1014.54 1014.32 1014.00 1013.68 1013.43 1013.32 1013.33 1013.45 1013.62 1013.78 1013.89 1013.92 1013.88 1013.82 1013.80 1013.85 1014.01 1014.28 1014.63 1015.01 1015.36 1015.65 1015.85 1015.96 1016.01 1016.04 1016.10 1016.20 1016.36 1016.55 1016.77 1016.97
1011.47 1012.04 1012.42 1012.59 1012.57 1012.41 1012.18 1011.97 1011.88 1011.96 1012.24 1012.69 1013.25 1013.81 1014.29 1014.61 1014.74 1014.67 1014.46 1014.19 1013.92 1013.72 1013.63 1013.64 1013.74 1013.86 1013.96 1013.99 1013.96 1013.88 1013.80 1013.77 1013.85 1014.04 1014.34 1014.72 1015.13 1015.51 1015.82 1016.03 1016.16 1016.23 1016.28 1016.35 1016.46 1016.63 1016.83 1017.06 1017.28
1011.69 1012.15 1012.43 1012.54 1012.50 1012.35 1012.18 1012.06 1012.06 1012.21 1012.53 1012.98 1013.50 1014.00 1014.41 1014.67 1014.75 1014.68 1014.49 1014.26 1014.04 1013.90 1013.86 1013.89 1013.99 1014.08 1014.14 1014.13 1014.07 1013.96 1013.87 1013.84 1013.91 1014.11 1014.42 1014.80 1015.22 1015.61 1015.93 1016.17 1016.32 1016.43 1016.51 1016.61 1016.75 1016.94 1017.17 1017.42 1017.67
1011.89 1012.24 1012.44 1012.50 1012.44 1012.33 1012.23 1012.18 1012.25 1012.45 1012.79 1013.21 1013.67 1014.09 1014.42 1014.61 1014.66 1014.58 1014.42 1014.23 1014.08 1014.00 1014.00 1014.07 1014.18 1014.28 1014.33 1014.32 1014.25 1014.15 1014.05 1014.02 1014.09 1014.27 1014.55 1014.92 1015.31 1015.69 1016.01 1016.27 1016.47 1016.62 1016.76 1016.91 1017.10 1017.33 1017.60 1017.88 1018.15
1012.10 1012.36 1012.49 1012.50 1012.45 1012.36 1012.31 1012.32 1012.43 1012.66 1012.98 1013.37 1013.76 1014.11 1014.37 1014.51 1014.53 1014.45 1014.32 1014.18 1014.08 1014.04 1014.09 1014.20 1014.33 1014.46 1014.54 1014.56 1014.51 1014.44 1014.36 1014.33 1014.38 1014.53 1014.77 1015.08 1015.43 1015.77 1016.09 1016.37 1016.60 1016.82 1017.03 1017.25 1017.51 1017.80 1018.11 1018.42 1018.72
1012.34 1012.52 1012.58 1012.56 1012.50 1012.44 1012.42 1012.46 1012.60 1012.82 1013.12 1013.46 1013.80 1014.09 1014.30 1014.42 1014.43 1014.37 1014.27 1014.16 1014.10 1014.10 1014.17 1014.30 1014.47 1014.63 1014.75 1014.82 1014.84 1014.81 1014.77 1014.75 1014.79 1014.89 1015.07 1015.30 1015.58 1015.88 1016.18 1016.47 1016.74 1017.02 1017.31 1017.61 1017.94 1018.29 1018.65 1018.99 1019.31
1012.62 1012.72 1012.72 1012.67 1012.60 1012.54 1012.53 1012.58 1012.71 1012.92 1013.19 1013.48 1013.78 1014.05 1014.25 1014.38 1014.42 1014.39 1014.33 1014.25 1014.21 1014.22 1014.29 1014.43 1014.61 1014.80 1014.97 1015.10 1015.19 1015.23 1015.24 1015.24 1015.26 1015.32 1015.42 1015.58 1015.78 1016.02 1016.29 1016.58 1016.89 1017.22 1017.57 1017.95 1018.35 1018.75 1019.15 1019.52 1019.84
1012.89 1012.92 1012.87 1012.79 1012.70 1012.64 1012.62 1012.66 1012.76 1012.93 1013.16 1013.43 1013.71 1013.99 1014.22 1014.40 1014.50 1014.54 1014.52 1014.48 1014.44 1014.43 1014.48 1014.59 1014.76 1014.96 1015.17 1015.37 1015.53 1015.64 1015.71 1015.75 1015.76 1015.78 1015.82 1015.90 1016.02 1016.19 1016.42 1016.70 1017.02 1017.39 1017.80 1018.23 1018.68 1019.12 1019.55 1019.93 1020.26
1013.10 1013.07 1012.99 1012.89 1012.80 1012.72 1012.68 1012.68 1012.74 1012.86 1013.04 1013.29 1013.58 1013.89 1014.19 1014.46 1014.66 1014.78 1014.82 1014.81 1014.77 1014.73 1014.73 1014.79 1014.92 1015.11 1015.35 1015.60 1015.83 1016.02 1016.16 1016.24 1016.26 1016.26 1016.24 1016.25 1016.30 1016.40 1016.58 1016.84 1017.16 1017.55 1017.98 1018.44 1018.91 1019.36 1019.79 1020.17 1020.50
1013.20 1013.13 1013.05 1012.96 1012.87 1012.79 1012.72 1012.67 1012.67 1012.72 1012.84 1013.06 1013.36 1013.73 1014.12 1014.50 1014.82 1015.06 1015.18 1015.21 1015.17 1015.09 1015.03 1015.02 1015.09 1015.25 1015.49 1015.78 1016.08 1016.34 1016.55 1016.68 1016.73 1016.72 1016.67 1016.63 1016.61 1016.66 1016.79 1017.02 1017.32 1017.70 1018.13 1018.58 1019.04 1019.48 1019.89 1020.26 1020.57
1013.16 1013.11 1013.06 1013.02 1012.96 1012.88 1012.78 1012.67 1012.58 1012.54 1012.59 1012.77 1013.07 1013.48 1013.97 1014.48 1014.94 1015.30 1015.52 1015.60 1015.56 1015.45 1015.32 1015.24 1015.25 1015.37 1015.60 1015.91 1016.26 1016.60 1016.88 1017.07 1017.15 1017.16 1017.10 1017.03 1016.97 1016.98 1017.07 1017.26 1017.53 1017.88 1018.28 1018.70 1019.12 1019.52 1019.89 1020.22 1020.52
1013.00 1013.02 1013.06 1013.10 1013.11 1013.05 1012.93 1012.75 1012.55 1012.39 1012.34 1012.44 1012.72 1013.16 1013.72 1014.34 1014.93 1015.42 1015.75 1015.89 1015.88 1015.75 1015.58 1015.43 1015.38 1015.47 1015.68 1016.01 1016.40 1016.80 1017.14 1017.40 1017.53 1017.57 1017.53 1017.45 1017.38 1017.37 1017.43 1017.59 1017.83 1018.13 1018.48 1018.84 1019.20 1019.54 1019.85 1020.14 1020.41
1012.80 1012.94 1013.12 1013.29 1013.38 1013.37 1013.22 1012.96 1012.64 1012.34 1012.15 1012.13 1012.34 1012.76 1013.37 1014.07 1014.77 1015.38 1015.81 1016.04 1016.07 1015.95 1015.76 1015.59 1015.50 1015.55 1015.76 1016.10 1016.52 1016.97 1017.37 1017.68 1017.88 1017.96 1017.95 1017.89 1017.83 1017.81 1017.87 1018.00 1018.21 1018.47 1018.77 1019.07 1019.36 1019.62 1019.87 1020.11 1020.34
1012.64 1012.95 1013.30 1013.62 1013.83 1013.86 1013.70 1013.35 1012.90 1012.43 1012.06 1011.89 1011.98 1012.35 1012.94 1013.68 1014.46 1015.16 1015.70 1016.01 1016.11 1016.04 1015.87 1015.69 1015.60 1015.64 1015.84 1016.20 1016.65 1017.13 1017.58 1017.94 1018.19 1018.31 1018.34 1018.32 1018.28 1018.29 1018.35 1018.48 1018.67 1018.90 1019.15 1019.39 1019.62 1019.82 1020.00 1020.18 1020.37
1012.61 1013.10 1013.64 1014.13 1014.45 1014.54 1014.35 1013.92 1013.32 1012.67 1012.11 1011.76 1011.70 1011.95 1012.48 1013.22 1014.03 1014.80 1015.42 1015.83 1016.01 1016.01 1015.89 1015.75 1015.68 1015.74 1015.96 1016.32 1016.79 1017.29 1017.77 1018.17 1018.45 1018.61 1018.68 1018.70 1018.71 1018.74 1018.83 1018.97 1019.17 1019.39 1019.61 1019.81 1019.99 1020.13 1020.26 1020.39 1020.54
1012.78 1013.44 1014.15 1014.78 1015.21 1015.33 1015.13 1014.61 1013.87 1013.05 1012.29 1011.74 1011.51 1011.62 1012.05 1012.73 1013.54 1014.34 1015.03 1015.52 1015.79 1015.88 1015.85 1015.78 1015.76 1015.86 1016.10 1016.48 1016.96 1017.47 1017.95 1018.36 1018.66 1018.84 1018.95 1019.00 1019.05 1019.13 1019.25 1019.43 1019.65 1019.88 1020.10 1020.29 1020.44 1020.55 1020.64 1020.73 1020.84
1013.14 1013.93 1014.77 1015.50 1015.99 1016.14 1015.91 1015.32 1014.47 1013.49 1012.56 1011.83 1011.42 1011.37 1011.69 1012.28 1013.05 1013.85 1014.57 1015.13 1015.49 1015.68 1015.75 1015.77 1015.82 1015.98 1016.26 1016.65 1017.13 1017.63 1018.10 1018.50 1018.80 1019.00 1019.12 1019.20 1019.29 1019.42 1019.59 1019.82 1020.07 1020.34 1020.58 1020.78 1020.93 1021.03 1021.10 1021.16 1021.24
1013.64 1014.50 1015.39 1016.16 1016.68 1016.83 1016.57 1015.93 1014.99 1013.91 1012.85 1011.98 1011.42 1011.24 1011.42 1011.92 1012.62 1013.39 1014.11 1014.72 1015.15 1015.43 1015.60 1015.72 1015.86 1016.08 1016.40 1016.81 1017.28 1017.77 1018.21 1018.59 1018.87 1019.06 1019.19 1019.30 1019.43 1019.60 1019.82 1020.10 1020.41 1020.72 1021.00 1021.23 1021.40 1021.51 1021.59 1021.64 1021.70
1014.21 1015.04 1015.90 1016.65 1017.14 1017.27 1016.99 1016.32 1015.35 1014.22 1013.10 1012.15 1011.49 1011.20 1011.28 1011.67 1012.27 1012.99 1013.69 1014.30 1014.79 1015.14 1015.40 1015.61 1015.84 1016.12 1016.49 1016.92 1017.39 1017.85 1018.28 1018.62 1018.88 1019.06 1019.20 1019.33 1019.49 1019.70 1019.98 1020.31 1020.67 1021.03 1021.35 1021.62 1021.82 1021.96 1022.05 1022.11 1022.17
1014.73 1015.45 1016.21 1016.87 1017.29 1017.38 1017.09 1016.43 1015.49 1014.38 1013.28 1012.32 1011.63 1011.27 1011.26 1011.55 1012.06 1012.68 1013.33 1013.92 1014.41 1014.81 1015.13 1015.42 1015.72 1016.08 1016.49 1016.95 1017.42 1017.88 1018.28 1018.61 1018.85 1019.03 1019.18 1019.33 1019.53 1019.78 1020.10 1020.48 1020.89 1021.29 1021.65 1021.96 1022.19 1022.36 1022.47 1022.55 1022.61
1015.15 1015.70 1016.29 1016.81 1017.13 1017.18 1016.89 1016.28 1015.41 1014.40 1013.38 1012.48 1011.81 1011.44 1011.36 1011.56 1011.96 1012.48 1013.04 1013.56 1014.03 1014.43 1014.79 1015.13 1015.50 1015.92 1016.38 1016.87 1017.37 1017.84 1018.24 1018.57 1018.83 1019.02 1019.19 1019.38 1019.61 1019.90 1020.26 1020.67 1021.11 1021.54 1021.93 1022.26 1022.51 1022.70 1022.83 1022.93 1023.01
Thickness
5809 5812 5812 5799 5778 5765 5760 5767 5777 5777 5780 5787 5789 5785 5774 5766 5758 5746 5764 5775 5775 5773 5770 5768 5767 5766 5765 5765 5764 5764 5764 5763 5763 5762 5762 5761 5760 5759 5759 5759 5759 5759 5759 5759 5759 5760 5760 5760 5761
5810 5814 5804 5787 5765 5753 5755 5768 5770 5775 5783 5789 5789 5785 5775 5767 5769 5765 5767 5773 5774 5772 5768 5766 5764 5764 5763 5763 5763 5762 5761 5761 5760 5760 5759 5758 5757 5756 5756 5756 5756 5757 5756 5756 5756 5756 5757 5757 5757
5809 5810 5791 5777 5764 5755 5754 5768 5772 5780 5788 5787 5782 5781 5771 5763 5767 5766 5769 5773 5773 5770 5766 5763 5762 5761 5761 5761 5760 5759 5759 5758 5757 5757 5756 5755 5754 5753 5753 5753 5754 5754 5753 5753 5753 5752 5753 5753 5754
5806 5798 5788 5769 5759 5766 5768 5772 5778 5778 5782 5786 5781 5770 5767 5770 5768 5768 5771 5772 5770 5767 5764 5761 5760 5759 5758 5758 5758 5757 5756 5756 5755 5754 5753 5752 5751 5751 5750 5751 5751 5750 5750 5750 5750 5750 5750 5750 5751
5803 5786 5769 5759 5760 5769 5777 5780 5781 5774 5774 5778 5776 5761 5756 5766 5771 5770 5769 5769 5766 5764 5762 5759 5758 5757 5756 5755 5755 5755 5754 5753 5752 5751 5750 5749 5748 5748 5748 5748 5747 5747 5747 5747 5747 5746 5747 5747 5748
5786 5780 5759 5750 5756 5767 5776 5780 5779 5774 5772 5774 5770 5760 5753 5764 5765 5765 5766 5765 5765 5763 5760 5757 5755 5755 5754 5753 5752 5752 5752 5750 5749 5748 5747 5746 5746 5745 5745 5745 5745 5744 5744 5744 5743 5743 5744 5744 5745
5776 5768 5757 5754 5753 5759 5770 5779 5774 5770 5767 5769 5772 5758 5753 5759 5762 5764 5764 5762 5761 5760 5758 5756 5754 5753 5751 5750 5750 5749 5748 5747 5747 5745 5744 5744 5743 5742 5742 5742 5742 5742 5741 5741 5740 5740 5740 5741 5741
5784 5770 5758 5754 5751 5753 5771 5776 5776 5771 5766 5775 5774 5756 5749 5755 5761 5761 5760 5758 5757 5756 5756 5755 5754 5753 5751 5748 5747 5747 5746 5745 5744 5743 5742 5741 5741 5740 5739 5739 5739 5739 5738 5738 5738 5738 5738 5738 5738
5787 5761 5748 5752 5752 5755 5769 5768 5773 5778 5771 5768 5768 5763 5759 5760 5759 5756 5753 5751 5751 5751 5752 5753 5752 5751 5750 5748 5746 5744 5743 5742 5741 5741 5740 5739 5739 5738 5737 5736 5736 5735 5735 5735 5735 5735 5735 5735 5735
5775 5750 5751 5763 5765 5763 5766 5766 5768 5766 5759 5757 5756 5758 5760 5757 5753 5749 5747 5745 5745 5745 5748 5750 5749 5749 5748 5747 5744 5742 5741 5740 5740 5739 5738 5738 5737 5736 5734 5733 5733 5732 5732 5733 5733 5732 5732 5732 5733
5771 5756 5761 5767 5771 5770 5764 5764 5768 5759 5749 5752 5750 5750 5752 5751 5749 5746 5744 5743 5743 5744 5745 5746 5747 5746 5744 5743 5741 5740 5739 5738 5738 5737 5736 5735 5734 5733 5732 5730 5729 5729 5729 5730 5730 5730 5730 5730 5730
5766 5764 5767 5766 5770 5767 5763 5762 5759 5755 5752 5760 5758 5755 5751 5747 5745 5743 5742 5742 5742 5741 5741 5743 5745 5743 5741 5739 5738 5737 5736 5736 5735 5735 5734 5733 5731 5731 5729 5728 5727 5727 5727 5727 5727 5727 5727 5727 5727
5763 5762 5767 5768 5767 5766 5764 5758 5755 5753 5758 5760 5757 5752 5748 5745 5744 5743 5743 5742 5740 5738 5738 5740 5741 5739 5738 5736 5735 5735 5733 5733 5732 5731 5731 5730 5729 5728 5726 5726 5725 5724 5724 5724 5723 5723 5722 5722 5722
5765 5764 5765 5766 5764 5764 5758 5755 5753 5751 5757 5754 5751 5747 5745 5743 5742 5740 5739 5738 5737 5736 5735 5736 5737 5736 5735 5733 5732 5730 5730 5729 5729 5728 5727 5727 5726 5725 5724 5722 5722 5721 5721 5721 5720 5719 5718 5718 5718
5768 5758 5757 5760 5762 5762 5756 5744 5747 5754 5755 5749 5746 5745 5743 5741 5741 5739 5738 5737 5736 5735 5734 5733 5733 5732 5731 5729 5728 5727 5726 5725 5724 5724 5724 5724 5723 5723 5721 5719 5718 5718 5717 5717 5716 5715 5715 5714 5713
5761 5751 5741 5753 5760 5760 5747 5729 5746 5755 5751 5745 5744 5742 5739 5739 5740 5740 5739 5737 5736 5734 5732 5730 5730 5728 5726 5725 5724 5723 5723 5722 5721 5720 5720 5720 5720 5719 5718 5716 5714 5714 5714 5713 5712 5711 5710 5709 5708
5747 5738 5738 5746 5759 5759 5747 5734 5747 5755 5750 5744 5743 5741 5739 5737 5738 5739 5738 5737 5735 5733 5730 5727 5726 5724 5722 5721 5720 5720 5719 5718 5717 5716 5716 5716 5716 5716 5714 5713 5712 5711 5710 5709 5709 5707 5706 5704 5703
5737 5740 5741 5741 5753 5753 5743 5740 5748 5753 5751 5746 5744 5742 5739 5737 5737 5739 5738 5736 5734 5732 5730 5725 5722 5721 5719 5718 5717 5716 5715 5714 5713 5713 5712 5712 5712 5712 5711 5710 5709 5708 5706 5705 5704 5703 5703 5701 5701
5751 5745 5740 5745 5755 5749 5743 5742 5747 5752 5749 5745 5744 5743 5740 5739 5740 5740 5737 5735 5732 5730 5727 5723 5720 5719 5717 5714 5712 5710 5708 5709 5709 5710 5709 5709 5709 5709 5709 5708 5706 5705 5703 5702 5701 5700 5699 5698 5699
5750 5742 5740 5746 5755 5750 5742 5743 5751 5752 5749 5748 5746 5744 5742 5740 5738 5737 5735 5732 5730 5727 5725 5722 5720 5718 5715 5713 5712 5711 5708 5707 5707 5707 5707 5706 5707 5707 5706 5705 5703 5702 5700 5699 5698 5697 5695 5695 5697
5746 5741 5739 5740 5747 5751 5742 5734 5743 5751 5754 5751 5751 5749 5746 5741 5737 5734 5732 5730 5728 5725 5724 5722 5720 5717 5715 5713 5711 5709 5707 5705 5704 5703 5703 5704 5704 5704 5703 5703 5702 5700 5699 5696 5696 5695 5693 5691 5693
5737 5750 5747 5742 5734 5731 5738 5715 5734 5745 5745 5746 5747 5747 5745 5743 5740 5735 5732 5729 5726 5725 5724 5722 5720 5717 5714 5712 5709 5705 5702 5699 5701 5701 5702 5703 5703 5702 5701 5701 5700 5699 5698 5696 5695 5694 5693 5691 5688
5745 5754 5748 5743 5736 5730 5738 5724 5731 5745 5738 5742 5745 5746 5745 5744 5741 5736 5733 5730 5728 5726 5723 5721 5719 5716 5713 5711 5708 5705 5703 5702 5702 5702 5701 5700 5700 5700 5699 5698 5698 5697 5696 5695 5694 5693 5692 5691 5688
5753 5748 5745 5742 5733 5716 5734 5727 5723 5739 5742 5744 5747 5747 5746 5745 5742 5738 5736 5732 5728 5725 5722 5719 5716 5713 5712 5710 5708 5706 5703 5702 5700 5698 5698 5697 5698 5698 5698 5697 5696 5695 5694 5693 5692 5691 5690 5689 5688
5747 5730 5715 5711 5710 5717 5746 5735 5731 5750 5756 5753 5749 5748 5748 5746 5742 5738 5734 5729 5725 5722 5719 5717 5714 5711 5711 5710 5708 5706 5704 5703 5700 5699 5697 5696 5695 5695 5695 5695 5694 5693 5692 5691 5690 5689 5688 5688 5686
5740 5733 5712 5702 5709 5725 5743 5731 5740 5760 5761 5759 5755 5752 5750 5746 5743 5738 5735 5730 5726 5722 5719 5716 5713 5711 5710 5709 5708 5707 5705 5703 5702 5701 5699 5697 5696 5695 5695 5694 5693 5692 5691 5690 5688 5687 5687 5686 5685
5735 5733 5741 5727 5726 5722 5730 5737 5745 5756 5753 5752 5751 5749 5746 5745 5742 5739 5735 5731 5727 5723 5719 5717 5714 5711 5710 5709 5707 5706 5705 5704 5702 5701 5700 5699 5697 5696 5695 5693 5691 5690 5689 5688 5687 5685 5684 5684 5682
5747 5742 5733 5721 5709 5706 5720 5727 5725 5735 5740 5744 5744 5743 5744 5744 5742 5738 5735 5731 5728 5725 5721 5719 5716 5712 5711 5709 5708 5706 5705 5704 5702 5701 5699 5698 5697 5696 5694 5692 5690 5688 5687 5686 5685 5683 5682 5681 5679
5736 5734 5730 5726 5725 5709 5702 5713 5746 5743 5744 5742 5742 5743 5742 5741 5739 5736 5733 5731 5728 5725 5722 5718 5715 5712 5710 5709 5707 5705 5704 5703 5702 5700 5698 5697 5696 5694 5693 5691 5689 5687 5685 5684 5682 5681 5680 5678 5677
5739 5733 5728 5712 5714 5721 5711 5715 5751 5750 5749 5746 5743 5742 5742 5740 5738 5736 5732 5729 5726 5723 5721 5718 5716 5713 5710 5709 5707 5705 5703 5702 5700 5698 5698 5697 5695 5694 5693 5691 5688 5686 5684 5683 5681 5678 5678 5676 5675